{"data":{"norad_id":57124,"epoch":"2026-05-25T04:36:12.813408Z","epoch_age_seconds":48563,"freshness":"FRESH","line1":"1 57124U 23090Z   26145.19181497  .00000603  00000+0  32183-4 0  9990","line2":"2 57124  43.0028 209.3989 0001479 274.5689  85.4994 15.26739422162032","mean_motion":15.26739422,"eccentricity":0.0001479,"inclination_deg":43.0028,"raan_deg":209.3989,"arg_perigee_deg":274.5689,"mean_anomaly_deg":85.4994,"bstar":3.2183e-5,"rev_number":16203,"period_min":94.318649223954,"perigee_km":484.55210185854,"apogee_km":486.58238557383,"semimajor_km":6863.7042437162,"source":"CELESTRAK","updated_at":"2026-05-25T13:38:18.243977Z"}}